www.pogodaiklimat.ru

Погода и климат >> Архив погоды >> Финляндия >> Муонио Саммалтунтури


ПОГОДА в Муонио Саммалтунтури

  • Прогноз погоды в Муонио Саммалтунтури
  • Монитор погоды в Муонио Саммалтунтури

АРХИВ ПОГОДЫ в Муонио Саммалтунтури

Время (UTC), дата Ветер
(напр.,м/с)
 
Видим.   Явления Облачность Т
(С)
Тd
(С)
f
(%)
Тe
(С)
Тes
(С)
Комфортность P
(гПа)
Po
(гПа)
Тmin
(С)
Tmax
(С)
R
(мм)
R24
(мм)
S
(см)
01 14.09 СЗ 5 50 км н/о +1.2 -0.2 90 -5 -5 1006.6 939.1
02 14.09 СЗ 6-7
{8}
50 км н/о +1.6 -0.4 87 -5 -5 1006.7 939.4
03 14.09 С 5-7
{7}
50 км н/о +2.4 -0.8 79 -3 -3 1006.7 939.5
04 14.09 З 4 50 км н/о +0.6 -0.5 92 -5 -5 1007.5 939.9
05 14.09 СЗ 4 50 км н/о +0.7 -0.1 94 -5 -5 1007.7 940.1
06 14.09 СЗ 3-4
{5}
50 км н/о +2.3 -0.1 84 -2 -2 1007.8 940.5 +0.3 +5.0
07 14.09 СЗ 2-3
{5}
50 км н/о +2.8 -0.1 81 -0 -0 1007.9 940.7
08 14.09 С 1 50 км н/о +4.8 +0.3 73 +4 +4 1007.7 941.0
09 14.09 З 2-3
{3}
45 км н/о +5.2 +1.4 76 +3 +3 1007.8 941.2
10 14.09 З 3 40 км н/о +5.7 -0.7 63 +3 +3 1007.8 941.4
11 14.09 ЮЗ 3 45 км н/о +6.5 -0.4 61 +4 +4 1007.7 941.5
12 14.09 З 3-5
{6}
45 км н/о +6.8 -1.4 56 +4 +4 1007.8 941.6
13 14.09 ЮЗ 4-5
{6}
45 км н/о +6.6 +0.2 64 +3 +3 1007.9 941.6
14 14.09 ЮЗ 2 40 км слаб. ливневой дождь н/о +6.1 -0.4 63 +4 +4 1008.1 941.7
15 14.09 ЮЗ 4-5
{6}
50 км {ливн. осадки, дождь} н/о +6.9 -0.5 59 +4 +4 1007.7 941.5
16 14.09 З 5 50 км н/о +6.2 -0.4 63 +2 +2 1007.6 941.3
17 14.09 ЮЗ 4-4
{5}
50 км н/о +5.2 -0.3 68 +1 +1 1007.4 940.9
18 14.09 Ю 5-6
{6}
50 км {ливн. осадки, дождь} н/о +4.8 -0.1 71 0 0 1007.0 940.3 +2.2 +7.9
19 14.09 Ю 5 50 км н/о +4.3 -0.2 73 -0 -0 1006.8 940.1
20 14.09 Ю 5-6
{6}
50 км н/о +3.7 -0.1 76 -1 -1 1006.7 939.8
21 14.09 Ю 5-7
{7}
50 км н/о +3.8 -0.1 76 -1 -1 1006.0 939.2
22 14.09 Ю 5 50 км н/о +3.9 -0.5 73 -1 -1 1005.1 938.4
23 14.09 Ю 7 50 км н/о +3.6 -0.5 75 -2 -2 1004.9 938.2
00 15.09 Ю 7-10
{10}
50 км н/о +3.5 -0.3 76 -2 -2 1004.3 937.5
01 15.09 Ю 7 50 км н/о +3.4 +0.1 79 -3 -3 1003.4 936.7
02 15.09 ЮВ 8 50 км н/о +3.2 -0.5 77 -3 -3 1002.3 935.6
03 15.09 ЮВ 7-9
{10}
50 км н/о +2.2 -0.1 85 -4 -4 1001.8 934.9
04 15.09 ЮВ 8-10
{11}
50 км н/о +1.8 +0.5 91 -5 -5 1001.2 934.3
05 15.09 ЮВ 9-11
{12}
25 км н/о +1.4 +0.9 96 -6 -6 1000.5 933.5
06 15.09 ЮВ 7-11
{11}
100 м снежные зёрна {дождь} н/о +0.9 +0.6 98 -6 -6 999.6 932.6 +0.9 +4.8
07 15.09 ЮВ 8 100 м снежные зёрна н/о +1.4 +1.1 98 -6 -6 999.0 932.2
08 15.09 ЮВ 8 1200 м ливневой дождь н/о +1.8 +1.4 97 -5 -5 998.4 931.6
09 15.09 В 10-13
{13}
40 км в посл. час осадки {ливн. осадки} н/о +3.5 +1.7 88 -4 -4 997.3 931.0
10 15.09 В 10 26 км н/о +3.6 +2.0 89 -3 -3 997.0 930.7
11 15.09 В 10 50 км в посл. час осадки н/о +4.4 +1.7 83 -2 -2 996.5 930.4
12 15.09 В 9-12
{14}
45 км в посл. час осадки {ливн. осадки} н/о +4.5 +1.0 78 -2 -2 996.3 930.3
13 15.09 В 10-12
{13}
50 км в посл. час морось н/о +4.7 +0.4 74 -2 -2 996.0 930.1
14 15.09 В 9-12
{13}
50 км н/о +5.1 -0.4 68 -1 -1 995.7 929.8
15 15.09 В 9-13
{13}
45 км {ливн. осадки, метель} н/о +5.0 -0.4 68 -1 -1 995.3 929.5
16 15.09 В 9 50 км н/о +4.2 -1.3 67 -2 -2 995.5 929.5
17 15.09 В 9-12
{12}
50 км н/о +3.4 -1.5 70 -3 -3 995.6 929.4
18 15.09 В 11-13
{13}
50 км {ливн. осадки, метель} н/о +2.9 -1.7 72 -4 -4 995.6 929.3 +0.9 +5.6
19 15.09 В 10 45 км н/о +2.1 -1.9 75 -5 -5 996.0 929.5
20 15.09 В 9 50 км н/о +1.1 -2.4 77 -6 -6 996.4 929.6
21 15.09 В 10-12
{12}
50 км н/о +0.6 -2.3 81 -7 -7 996.4 929.5
22 15.09 В 10-11
{13}
50 км н/о +0.7 -2.2 81 -7 -7 996.5 929.7
23 15.09 СВ 7 40 км н/о -0.1 -2.0 87 -7 -7 997.0 929.9
00 16.09 СВ 6-7
{8}
30 км н/о -0.3 -1.3 93 -7 -7 997.3 930.1
01 16.09 СВ 7-8
{8}
20 км н/о -0.5 -1.2 95 -8 -8 997.3 930.0
02 16.09 С 7-9
{9}
19 км н/о -0.5 -1.0 96 -8 -8 997.0 929.8
03 16.09 С 8-10
{10}
6000 м дымка н/о -0.7 -1.1 97 -9 -9 997.0 929.8
04 16.09 С 8 24 км н/о -0.4 -1.1 95 -8 -8 996.7 929.5
05 16.09 С 9 21 км осадки н/о -0.1 -0.9 94 -8 -8 996.5 929.4
06 16.09 СВ 9-12
{13}
200 м снег {осадки} н/о -0.1 -0.5 97 -8 -8 996.4 929.3 -0.7 +2.9
07 16.09 С 9-11
{13}
200 м слаб. дождь н/о +0.4 +0.1 98 -8 -8 996.3 929.4
08 16.09 СВ 8 100 м слаб. дождь со снегом н/о +1.1 +0.8 98 -6 -6 996.2 929.4
09 16.09 СВ 8-10
{12}
100 м слаб. дождь со снегом н/о +1.9 +1.6 98 -5 -5 996.6 930.0
10 16.09 СВ 7-10
{10}
200 м слаб. дождь н/о +2.5 +2.2 98 -4 -4 996.7 930.2
11 16.09 СВ 6 200 м осадки н/о +3.4 +3.1 98 -3 -3 996.9 930.6
12 16.09 СВ 7-9
{9}
300 м осадки н/о +4.5 +4.3 99 -1 -1 996.8 930.8
13 16.09 В 8 1500 м слаб. ливневой дождь н/о +4.1 +3.8 98 -2 -2 997.2 931.0
14 16.09 СВ 7 30 км в посл. час дождь н/о +4.2 +4.0 99 -2 -2 997.5 931.3
15 16.09 СВ 6-9
{13}
50 км в посл. час дождь {ливн. осадки} н/о +3.5 +3.2 98 -2 -2 997.9 931.6
16 16.09 СВ 7 50 км н/о +3.1 +2.6 97 -3 -3 998.1 931.7
17 16.09 СВ 9 50 км н/о +2.8 +2.3 97 -4 -4 998.3 931.8
18 16.09 СВ 7-11
{11}
17 км {ливн. осадки, снег} н/о +2.6 +2.2 97 -4 -4 998.6 932.0 -0.1 +4.7
19 16.09 СВ 7-8
{11}
23 км н/о +2.2 +1.8 97 -4 -4 998.8 932.1
20 16.09 СВ 7-9
{10}
1100 м в посл. час туман н/о +2.0 +1.7 98 -5 -5 999.1 932.4
21 16.09 СВ 6-9
{9}
400 м туман н/о +1.7 +1.4 98 -5 -5 999.3 932.5
22 16.09 СВ 6 300 м осадки н/о +1.5 +1.3 99 -5 -5 999.5 932.6
23 16.09 СВ 6-8
{8}
200 м снежные зёрна н/о +1.4 +1.1 98 -5 -5 999.5 932.6
00 17.09 СВ 8-9
{10}
200 м осадки н/о +1.6 +1.3 98 -6 -6 999.4 932.5
01 17.09 СВ 8-9
{10}
200 м снежные зёрна н/о +1.7 +1.5 99 -6 -6 999.6 932.7
02 17.09 СВ 7-8
{10}
100 м снежные зёрна н/о +1.8 +1.6 99 -5 -5 999.7 932.9
03 17.09 СВ 6 300 м осадки н/о +1.9 +1.7 99 -4 -4 999.7 932.9
04 17.09 СВ 7 500 м слаб. дождь н/о +2.1 +1.9 99 -5 -5 999.8 933.0
05 17.09 В 9 300 м осадки н/о +2.5 +2.3 99 -5 -5 999.9 933.3
06 17.09 В 12-15
{15}
500 м слаб. дождь со снегом н/о +1.9 +1.7 99 -7 -7 1000.6 933.7 +1.4 +2.6
07 17.09 В 11-14
{15}
2400 м слаб. дождь н/о +1.8 +1.6 99 -6 -6 1001.2 934.2
08 17.09 В 11-15
{15}
1500 м слаб. дождь н/о +1.8 +1.6 99 -6 -6 1001.5 934.6
09 17.09 В 7-9
{13}
10 км в посл. час дождь {ливн. осадки} н/о +2.1 +1.9 99 -5 -5 1002.6 935.6
10 17.09 В 6 30 км слаб. ливневой дождь н/о +2.2 +2.0 99 -4 -4 1003.0 936.0
11 17.09 В 6 15 км в посл. час дождь н/о +2.9 +2.7 99 -3 -3 1003.2 936.4
12 17.09 В 8-9
{10}
40 км {ливн. осадки, снег} н/о +3.4 +2.2 92 -3 -3 1003.3 936.6
13 17.09 В 6-7
{11}
45 км н/о +3.6 +0.5 80 -2 -2 1003.6 936.9
14 17.09 В 5 40 км н/о +3.6 0.0 77 -1 -1 1004.0 937.3
15 17.09 СВ 6-8
{9}
50 км н/о +3.1 -0.4 78 -3 -3 1004.5 937.6
16 17.09 СВ 6 50 км н/о +2.6 -0.2 82 -3 -3 1004.8 937.8
17 17.09 СВ 6-8
{11}
50 км н/о +2.0 -0.5 83 -4 -4 1005.2 938.0
18 17.09 СВ 6-8
{8}
45 км н/о +1.5 -0.6 86 -5 -5 1005.6 938.2 +1.5 +4.0
19 17.09 СВ 6 45 км н/о +0.9 -0.7 89 -6 -6 1006.0 938.5
20 17.09 В 6 45 км н/о +0.6 -0.8 90 -6 -6 1006.5 938.9
21 17.09 СВ 5-6
{8}
45 км н/о +0.2 -0.9 92 -6 -6 1007.2 939.5
22 17.09 СВ 6 45 км н/о 0.0 -1.0 93 -7 -7 1007.4 939.6
23 17.09 СВ 4 45 км н/о +0.1 -0.7 94 -6 -6 1007.5 939.8
00 18.09 В 5-6
{6}
45 км н/о +0.4 -0.5 94 -6 -6 1007.6 939.9
01 18.09 В 4-5
{5}
45 км н/о +0.2 -0.5 95 -5 -5 1007.5 939.8
02 18.09 СВ 4 40 км н/о -0.1 -0.8 95 -6 -6 1007.9 940.0
03 18.09 СВ 3-4
{4}
50 км н/о 0.0 -1.1 92 -5 -5 1008.1 940.3
04 18.09 С 2 50 км н/о +0.3 -0.9 92 -3 -3 1008.2 940.4
05 18.09 СВ 2-2
{3}
50 км н/о +0.6 -1.0 89 -3 -3 1008.3 940.5
06 18.09 СВ 3-4
{4}
40 км н/о +0.2 -0.6 94 -5 -5 1008.7 940.9 -0.2 +1.5
07 18.09 СВ 2-3
{4}
45 км н/о +1.4 +0.3 92 -2 -2 1008.9 941.3
08 18.09 С 2-3
{4}
40 км н/о +1.5 -0.1 89 -2 -2 1009.1 941.6
09 18.09 СВ 2-4
{5}
1500 м слаб. снег {осадки} н/о +0.9 -0.2 92 -3 -3 1009.7 941.9
10 18.09 СВ 1 8000 м слаб. ливневой снег н/о +1.4 +0.1 91 -1 -1 1009.7 942.1
11 18.09 СЗ 1-2
{3}
50 км в посл. час снег н/о +1.6 +0.1 90 -0 -0 1009.8 942.2
12 18.09 СЗ 3-5
{5}
50 км в посл. час осадки {ливн. осадки} н/о +2.5 +0.1 84 -2 -2 1009.8 942.4
13 18.09 СЗ 3 30 км слаб. ливневой снег н/о +1.4 -0.7 86 -3 -3 1010.1 942.5
14 18.09 С 4-7
{7}
50 км н/о +2.0 -1.0 80 -3 -3 1010.1 942.6
15 18.09 С 4-6
{7}
50 км {ливн. осадки, снег} н/о +1.6 -2.6 74 -3 -3 1010.3 942.7
16 18.09 СЗ 3 50 км н/о +1.2 -2.5 76 -3 -3 1010.4 942.7
17 18.09 СЗ 4 50 км н/о +0.8 -2.5 79 -4 -4 1010.7 942.8
18 18.09 СЗ 5-6
{7}
50 км {ливн. осадки, снег} н/о +0.4 -3.0 78 -5 -5 1010.9 943.0 +0.2 +2.5
19 18.09 СЗ 5 50 км н/о 0.0 -3.1 80 -6 -6 1011.1 943.1
20 18.09 СЗ 4-4
{6}
50 км н/о -0.1 -3.1 80 -5 -5 1011.2 943.2
21 18.09 С 5-8
{8}
50 км н/о -0.1 -2.8 82 -6 -6 1011.4 943.3
22 18.09 С 3-4
{6}
50 км н/о -0.5 -3.0 83 -5 -5 1011.5 943.3
23 18.09 СЗ 4 50 км н/о -1.6 -3.1 89 -7 -7 1011.8 943.4
00 19.09 СЗ 5-7
{8}
50 км н/о -1.7 -3.2 89 -8 -8 1011.9 943.4
01 19.09 СЗ 5 50 км н/о -2.0 -3.3 91 -9 -9 1011.8 943.2
02 19.09 СЗ 6 50 км н/о -2.3 -3.2 94 -10 -10 1011.8 943.1
03 19.09 СЗ 6-6
{8}
50 км н/о -2.7 -3.3 96 -10 -10 1011.9 943.2
04 19.09 СЗ 4 50 км н/о -2.6 -3.2 96 -9 -9 1012.1 943.4
05 19.09 СЗ 4 10 км н/о -2.8 -3.4 96 -9 -9 1012.2 943.5
06 19.09 СЗ 6-7
{7}
50 км в посл. час туман н/о -2.3 -3.0 95 -10 -10 1011.9 943.3 -3.0 +0.4
07 19.09 З 6-7
{7}
50 км н/о -1.9 -3.1 91 -9 -9 1011.7 943.2
08 19.09 З 6-8
{8}
45 км н/о -1.6 -3.0 90 -9 -9 1011.7 943.3
09 19.09 З 4-6
{9}
50 км {метель} н/о -0.6 -2.2 89 -6 -6 1011.8 943.6
10 19.09 СЗ 6 50 км н/о +1.3 -2.5 76 -5 -5 1011.3 943.6
11 19.09 СЗ 8 35 км н/о +2.8 -2.2 70 -4 -4 1010.9 943.5
12 19.09 СЗ 6-8
{13}
14 км слаб. ливневой снег н/о -0.4 -1.4 93 -7 -7 1012.1 943.9
13 19.09 С 6 1400 м слаб. ливневой снег н/о -0.4 -1.5 92 -7 -7 1012.2 944.0
14 19.09 СЗ 4 50 км в посл. час снег н/о +0.9 -2.1 80 -4 -4 1011.8 943.9
15 19.09 СЗ 7-9
{9}
50 км {ливн. осадки, метель} н/о +1.2 -3.1 73 -5 -5 1011.6 943.9
16 19.09 СЗ 5 50 км н/о +0.7 -3.4 74 -5 -5 1011.5 943.6
17 19.09 СЗ 6 50 км н/о +0.8 -3.9 71 -5 -5 1011.2 943.3
18 19.09 З 7-9
{9}
50 км {ливн. осадки, метель} н/о +0.5 -4.0 72 -6 -6 1010.8 943.0 -2.4 +3.4
19 19.09 СЗ 9-9
{12}
50 км н/о +0.2 -3.4 77 -7 -7 1010.7 942.8
20 19.09 З 8-10
{11}
50 км н/о -0.5 -2.9 84 -8 -8 1010.6 942.5
21 19.09 З 8-10
{12}
50 км н/о -0.6 -2.9 84 -8 -8 1010.6 942.4
22 19.09 З 8 50 км н/о -0.7 -2.9 85 -8 -8 1010.6 942.4
23 19.09 З 8-9
{10}
50 км н/о -0.9 -3.0 86 -9 -9 1010.6 942.4
00 20.09 СЗ 9-12
{12}
50 км н/о -0.6 -2.7 86 -9 -9 1010.3 942.2
01 20.09 СЗ 8-11
{12}
50 км н/о -0.5 -2.5 86 -8 -8 1010.0 941.9
02 20.09 СЗ 8 50 км н/о -0.7 -2.5 88 -8 -8 1009.8 941.7
03 20.09 СЗ 7-9
{9}
50 км н/о -1.2 -2.6 90 -9 -9 1010.0 941.7
04 20.09 СЗ 7 50 км н/о -1.1 -2.6 90 -9 -9 1009.9 941.7
05 20.09 З 7-9
{10}
50 км н/о -1.2 -2.4 92 -9 -9 1009.9 941.7
06 20.09 СЗ 7-8
{10}
50 км н/о -1.0 -2.2 92 -9 -9 1009.9 941.8 -1.3 +0.5
07 20.09 СЗ 6-8
{8}
50 км н/о -0.5 -2.0 90 -7 -7 1010.1 942.0
08 20.09 СЗ 6-8
{8}
50 км н/о +0.7 -1.8 83 -6 -6 1009.8 942.1
09 20.09 СЗ 5-7
{7}
50 км н/о +1.5 -1.4 81 -4 -4 1009.9 942.3
10 20.09 СЗ 5 35 км н/о +1.9 -1.3 79 -4 -4 1009.8 942.3
11 20.09 СЗ 6 45 км н/о +2.7 -1.2 75 -3 -3 1009.4 942.2
12 20.09 СЗ 6-8
{9}
50 км н/о +3.1 -1.6 71 -2 -2 1009.5 942.3
13 20.09 З 4 40 км н/о +3.2 -1.4 72 -1 -1 1009.3 942.2
14 20.09 З 5 40 км н/о +3.4 -1.5 70 -2 -2 1008.8 941.8
15 20.09 СЗ 5-7
{8}
50 км н/о +3.5 -2.1 67 -1 -1 1008.2 941.2
17 20.09 С 4 50 км н/о +2.9 -1.8 71 -2 -2 1008.6 941.4
18 20.09 СВ 3-4
{6}
50 км {ливн. осадки, осадки} н/о +1.8 -0.3 86 -3 -3 1008.7 941.3 -1.0 +3.6
19 20.09 СВ 4-6
{6}
50 км н/о +1.1 -1.1 85 -4 -4 1008.8 941.2
22 20.09 СВ 4 50 км н/о -0.4 -3.0 83 -6 -6 1008.7 940.8
23 20.09 СВ 4 50 км н/о -0.8 -2.6 88 -6 -6 1008.4 940.4

 

Местоположение метеостанции Муонио Саммалтунтури (Финляндия): широта 67.97 долгота 24.12 высота над уровнем моря 565 м.

В архиве по умолчанию представлена погода в Муонио Саммалтунтури за последнюю неделю. Архивные данные за месяц целиком и за предыдущие месяцы, начиная с января 2011 года, Вы можете получить, выбрав интересующий диапазон дат из раскрывающегося списка и нажав кнопку "Ввод!".


*Определитесь, кто Вы:
робот инопланетянин человек

Внимание! Время в таблицах - всемирное. Для получения местного времени необходимо прибавить поправку, которая равна 1 ч.

Смотрите также архив погоды в соседних городах и на ближайших метеорологических станциях:

Погода в Киттиля Ломполонвуома (Финляндия) (5 км)
Погода в Киттила Кенттарова (Финляндия) (5 км)
Погода в Киттила Маторова (Финляндия) (6 км)
Погода в Муонио Лаукукеро (Финляндия) (11 км)
Погода в Муонио Аламуонио (Финляндия) (18 км)
Погода в Киттила Левитунтури (Финляндия) (37 км)
Погода в Киттиля (Финляндия) (43 км)
Погода в Киттиля (Финляндия) (48 км)
Погода в Паркаломполо (Швеция) (60 км)
Погода в Киттила Покка (Финляндия) (72 км)

Пояснения к столбцам:

Ветер - указаны скорость ветра в м/с - средняя за 10 мин, порывы в срок и между сроками (в фигурных скобках) и направление, откуда дует ветер: С - северный, СВ - северо-восточный, В - восточный, ЮВ - юго-восточный, Ю - южный, ЮЗ - юго-западный, З - западный, СЗ - северо-западный.
Видимость - горизонтальная дальность видимости в метрах или километрах. При видимости от 1 до 10 км при отсутствии осадков обычно наблюдается дымка, при ухудшении видимости до 1 км и менее - туман. В сухую погоду видимость может ухудшаться дымом, пылью или мглою.
Явления - указаны атмосферные явления, наблюдавшиеся в срок или в последний час перед сроком; фигурными скобками обозначены явления, наблюдавшиеся между сроками (за 1-3 часа до срока); квадратными скобками обозначены град или гололедные отложения с указанием их диаметра в мм.
Облачность - указаны через наклонную черту общая и нижняя облачность в баллах и высота нижней границы облаков в метрах; квадратными скобками обозначены формы облаков: Ci - перистые, Cs - перисто-слоистые, Cc - перисто-кучевые, Ac - высококучевые, As - высокослоистые, Sc - слоисто-кучевые, Ns - слоисто-дождевые, Cu - кучевые, Cb - кучево-дождевые. Подробнее классификацию облаков см. в Атласе облаков (PDF).
T - Температура воздуха - температура, измеренная на высоте 2 м над землей.
Td - Температура точки росы - температура, при понижении до которой содержащийся в воздухе водяной пар достигнет насыщения.
f - Относительная влажность воздуха - влажноcть воздуха, измеренная на высоте 2 м над землей.
Te - Эффективная температура - температура, которую ощущает одетый по сезону человек в тени. Характеристика душности погоды. При расчете учитывается влияние влажности воздуха и скорости ветра на теплоощущения человека.
Tes - Эффективная температура на солнце - температура, которую ощущает человек, с поправкой на солнечный нагрев. Характеристика знойности погоды. Зависит от высоты солнца над горизонтом, облачности и скорости ветра. Ночью, в пасмурную погоду, а также при ветре 12 м/с и более поправка равна нулю.
P - Атмосферное давление - приведенное к уровню моря атмосферное давление.
Po - Атмосферное давление - измеренное на уровне метеостанции атмосферное давление.
Tmin - Минимальная температура - минимум температуры воздуха на высоте 2 м над землей.
Tmax - Максимальная температура - максимум температуры воздуха на высоте 2 м над землей.
R - Количество осадков - Количество выпавших осадков за период времени, мм. При наведении курсора мыши на число - период времени, за который выпало указанное количество осадков.
R24 - Количество осадков - Количество выпавших осадков за 24 часа, мм.
S - Снежный покров - Высота снежного покрова, см. При наведении курсора мыши на число - состояние снежного покрова и степень покрытия местности в баллах.